Tracking 32139 objects as of 18-Nov-2025
HD Live streaming from Space Station
objects crossing your sky now

STARLINK-11505

Track STARLINK-11505 now!
10-day predictions
STARLINK-11505 is classified as:


NORAD ID: 62469
Int'l Code: 2024-254H
Perigee: 362.3 km
Apogee: 364.6 km
Inclination: 43.0 °
Period: 91.7 minutes
Semi major axis: 6734 km
RCS: Unknown
Launch date: December 31, 2024
Source: United States (US)
Launch site: AIR FORCE EASTERN TEST RANGE (AFETR)
Your satellite tracking list
Your tracking list is empty




NASA's NSSDC Master Catalog

Two Line Element Set (TLE):
1 62469U 24254H   25321.97999578  .00251162  00000-0  18976-2 0  9990
2 62469  42.9992 176.2011 0001691 266.3384  93.7291 15.70899178 51823
Source of the keplerian elements: AFSPC